ECMWFNIL_850_temp_021.txt.gz
Temp
22 22 22 22 22 21 20 20 21 21 20 19 19 19 18 18 18 18 18 17 17 16 16 17 17 17 16 16 17 16 16 15 16 16 16 15 15 16 15 16 16 15
23 22 22 22 22 21 21 21 21 21 20 20 19 19 19 19 18 18 17 17 17 17 17 17 17 18 17 16 17 17 16 15 15 16 15 15 15 15 15 16 16 16
23 23 22 22 22 22 22 21 21 21 21 20 19 19 19 18 18 18 17 17 17 17 17 18 18 18 17 16 16 16 16 15 15 15 16 15 15 15 16 16 16 16
23 23 22 22 21 21 22 22 21 21 21 20 19 19 18 18 18 18 17 17 17 17 17 17 17 17 17 16 16 15 15 15 15 15 15 15 15 15 15 15 15 16
23 23 23 22 21 21 21 22 22 22 21 20 20 19 18 19 19 18 18 18 18 17 16 17 17 16 16 16 16 16 15 15 15 15 15 15 15 15 15 15 15 15
23 23 23 22 22 21 21 22 22 22 21 20 20 19 19 19 20 19 19 19 19 18 17 17 17 16 16 17 17 17 16 15 16 15 15 15 15 15 15 15 15 15
23 24 23 22 22 21 22 22 22 22 22 21 20 20 20 20 21 20 19 19 19 19 18 18 18 18 18 18 18 18 17 16 16 16 15 15 15 15 15 15 15 15
23 24 23 23 22 22 22 22 22 22 22 21 21 21 21 21 21 21 20 20 19 19 19 19 19 19 19 19 18 18 17 16 15 15 15 15 15 15 15 15 15 15
24 24 24 23 22 22 22 22 21 22 22 22 22 22 22 21 21 21 21 21 20 20 19 19 18 19 19 19 19 19 18 16 15 15 15 15 15 15 15 15 15 15
24 24 24 23 22 22 23 22 21 22 23 23 23 22 22 22 22 21 21 21 20 19 19 19 18 19 19 19 19 19 19 17 16 16 16 16 16 15 15 15 15 15
24 24 24 23 22 22 23 23 23 23 24 24 23 23 22 22 22 21 21 21 21 20 19 19 19 19 19 19 19 20 20 19 18 17 18 18 17 16 15 15 15 15
25 24 24 23 23 22 23 24 23 23 23 24 24 23 22 21 21 21 21 21 21 21 20 19 19 19 19 19 19 20 20 19 18 17 18 18 17 16 16 16 15 15
26 25 25 24 24 23 24 24 24 23 23 23 23 24 23 22 21 21 21 21 21 21 20 20 19 19 18 19 19 19 19 19 18 17 17 18 17 16 16 15 15 15
26 26 26 25 24 24 24 24 24 24 23 22 22 23 23 22 22 22 21 21 21 21 21 20 19 19 19 19 19 19 19 19 18 18 17 17 17 16 15 15 16 15
26 26 25 24 24 25 25 24 24 24 24 23 22 22 22 22 22 22 21 21 20 20 21 20 19 19 19 19 18 19 19 19 18 17 17 16 16 16 15 15 15 15
25 24 23 24 25 25 25 25 24 24 24 23 22 22 21 21 21 21 20 20 20 20 20 20 19 19 19 19 18 18 19 19 18 17 17 16 16 15 15 15 15 15
24 23 23 23 24 25 25 25 24 24 23 23 23 22 21 20 20 20 19 19 20 20 20 20 19 19 19 19 18 18 18 18 18 17 16 16 15 15 15 15 15 15
24 23 23 24 24 24 24 24 24 23 22 22 22 22 21 20 20 19 19 19 19 19 20 20 19 19 19 19 18 18 18 17 17 16 16 16 15 16 15 15 15 16
24 23 24 24 24 24 23 23 22 22 22 21 21 21 21 20 20 19 19 19 19 19 19 19 19 19 19 19 18 18 17 17 16 16 16 16 16 16 16 16 15 15
24 24 24 24 23 23 23 22 21 21 21 21 21 20 20 20 19 19 19 19 18 18 19 19 18 18 19 19 18 17 17 17 16 16 16 16 16 16 16 15 15 15
24 24 23 23 22 22 22 22 22 21 21 20 20 19 19 19 19 19 19 18 18 18 18 18 18 18 18 18 18 17 17 17 16 16 16 16 16 16 16 15 15 15
24 24 23 22 21 21 22 22 22 21 20 20 19 19 19 19 19 18 18 18 18 18 18 18 17 17 16 16 17 17 17 17 16 16 16 16 16 16 16 15 15 15
24 24 23 22 21 21 21 21 21 21 20 19 19 18 19 19 19 18 18 18 17 17 17 17 17 16 16 16 16 16 16 16 16 16 16 16 16 16 16 16 16 15
24 24 23 23 21 21 20 19 19 19 19 18 17 17 18 18 18 18 17 17 17 16 17 17 16 16 16 15 16 16 16 16 16 16 16 16 16 16 16 16 16 16
24 24 23 23 22 20 19 18 18 18 18 17 17 17 17 17 17 16 16 16 16 16 16 16 16 16 15 15 15 15 15 16 16 16 16 16 16 16 16 16 16 16
24 24 23 23 22 21 19 18 18 17 17 17 17 16 16 16 15 15 15 16 17 16 15 15 15 15 15 15 15 15 15 16 16 16 16 16 16 16 16 16 16 16

ECMWFNIL_850_temp_024.txt.gz
Temp
22 22 22 22 22 22 21 21 21 21 20 20 21 21 21 21 20 19 19 19 19 18 18 19 19 18 18 18 18 17 17 17 16 16 16 16 16 16 16 16 16 16
22 22 22 22 22 22 22 21 21 21 20 20 20 21 21 21 20 19 19 19 19 19 19 19 19 19 18 19 19 18 18 18 17 16 16 16 16 16 16 16 16 17
22 22 22 22 22 22 22 21 21 21 21 20 21 21 20 20 20 19 19 19 19 19 19 19 19 19 19 19 19 19 18 18 18 16 16 16 16 16 16 16 16 16
22 22 22 22 23 22 22 21 21 21 21 21 21 20 20 20 19 19 19 18 19 19 19 19 20 20 20 20 19 19 18 18 18 17 16 16 16 16 16 16 16 16
22 22 22 22 23 22 22 22 22 22 22 22 21 20 20 20 19 19 19 19 19 19 19 19 20 20 20 19 19 19 19 18 18 18 17 16 16 16 16 16 16 16
22 21 22 22 22 22 22 22 22 22 22 22 22 21 20 20 20 20 20 20 20 20 20 20 20 20 20 19 19 19 19 19 19 18 18 17 16 16 16 16 16 16
22 21 22 22 22 22 22 23 22 22 22 22 22 21 21 21 21 21 20 20 20 20 20 20 21 20 20 20 19 19 18 18 18 18 18 18 17 17 16 16 15 16
22 21 22 22 22 22 22 23 22 22 22 22 22 21 21 21 21 21 21 21 20 20 20 21 21 21 21 20 19 18 18 18 18 17 17 18 18 18 18 17 16 17
22 22 22 22 22 22 22 23 22 22 23 23 22 22 21 21 21 22 21 21 21 21 20 21 21 21 21 21 20 19 19 19 18 18 18 18 19 19 19 18 17 17
22 22 22 22 22 22 23 23 23 23 23 23 23 22 21 21 22 22 21 21 21 21 21 21 21 21 21 20 20 20 19 19 19 18 18 18 18 19 19 18 18 18
23 23 22 23 23 23 23 24 23 23 23 24 23 22 22 22 22 21 21 21 21 21 21 21 21 21 21 20 20 21 20 19 19 19 18 17 17 18 18 18 18 18
23 23 23 23 23 23 23 24 23 23 23 24 24 23 22 22 22 22 21 21 20 20 21 21 21 21 21 21 21 21 20 20 19 19 18 17 17 17 17 17 17 17
24 24 24 24 23 23 23 23 23 23 22 23 23 23 23 23 22 22 22 21 20 20 20 21 21 21 21 21 21 21 20 20 20 19 18 17 17 17 17 17 17 17
24 25 25 25 24 23 23 23 23 23 23 22 22 22 22 23 22 22 21 21 20 20 20 20 21 21 21 21 21 21 20 20 20 19 18 18 17 17 17 17 17 17
25 25 26 25 24 23 23 23 23 23 23 22 22 22 21 21 22 22 21 21 20 20 19 20 20 20 21 21 21 21 20 20 20 19 19 18 17 16 17 17 17 16
24 24 25 25 24 24 24 24 23 23 23 23 22 22 21 21 21 21 21 20 20 19 19 19 19 20 21 21 21 21 20 20 19 19 18 18 17 16 16 17 17 16
24 24 24 24 24 24 24 24 24 23 23 23 23 22 22 21 21 20 20 20 19 19 19 19 19 19 20 21 21 21 20 19 19 19 18 17 16 16 16 16 16 16
25 24 24 23 24 24 24 24 23 23 23 23 22 22 22 21 21 20 20 20 19 19 18 19 19 19 20 20 21 20 20 19 18 18 18 17 16 16 16 16 15 16
25 24 24 23 23 23 23 23 23 23 23 22 22 22 22 21 21 21 20 20 19 18 18 18 19 19 19 20 20 20 19 19 18 18 17 17 16 15 15 15 15 15
25 24 24 23 23 23 23 23 22 22 22 22 22 22 22 21 21 21 20 20 19 19 18 18 18 18 19 19 19 19 19 18 18 17 17 16 16 16 16 16 16 16
25 24 23 23 22 22 22 22 22 22 22 22 22 22 22 21 21 21 20 20 20 19 18 18 18 18 19 19 19 19 19 18 18 17 16 15 16 16 16 16 16 16
24 23 23 22 23 23 23 23 22 22 22 22 22 21 21 21 20 20 20 20 20 19 18 18 17 18 18 18 18 18 18 18 17 17 16 16 16 16 16 16 16 16
24 23 23 23 23 23 23 22 22 22 22 21 21 20 20 20 20 20 19 19 19 19 18 18 17 17 18 18 18 18 18 17 17 17 16 16 16 16 16 16 16 16
23 23 23 23 23 23 23 22 22 22 21 21 20 19 19 19 19 18 18 17 17 17 17 17 17 17 18 18 18 18 18 17 17 16 16 16 16 16 15 15 15 15
24 24 24 23 23 23 22 22 22 22 21 20 19 19 18 18 18 18 17 17 16 16 16 16 16 17 17 17 17 17 17 17 16 16 16 16 16 16 15 15 15 15
24 23 23 23 23 22 22 22 22 21 21 20 19 18 18 18 18 18 17 17 17 16 16 15 15 16 16 16 16 16 16 16 16 16 16 16 15 15 15 15 14 14

ECMWFNIL_850_temp_030.txt.gz
Temp
23 23 23 22 22 22 22 22 22 22 21 21 21 21 22 22 21 21 21 21 21 21 21 20 20 20 20 20 19 19 18 18 18 18 18 18 18 18 18 18 18 17
22 22 22 22 22 22 22 22 22 22 22 21 21 21 22 21 21 21 21 21 21 21 21 21 20 20 20 20 19 19 19 19 19 19 19 19 19 18 18 18 18 17
22 22 22 22 22 22 22 22 22 22 22 22 22 21 21 21 21 21 21 21 21 21 21 21 21 20 20 20 20 19 20 20 20 19 20 19 19 19 18 18 18 18
22 22 22 22 23 22 22 22 22 22 22 22 22 21 21 21 21 21 21 21 21 21 21 21 21 21 20 20 20 20 20 20 20 20 20 20 19 19 19 18 18 18
22 22 22 22 22 22 22 22 22 22 22 22 22 21 21 21 21 21 21 21 21 21 21 22 22 21 21 21 21 21 21 21 20 20 20 20 20 19 19 18 18 18
22 22 22 22 22 22 22 22 22 22 22 22 22 21 21 21 21 21 21 21 21 21 21 22 22 22 22 21 21 21 21 21 21 20 20 20 20 19 19 19 18 18
22 22 22 21 21 21 22 22 22 22 22 22 22 21 21 21 21 21 22 22 22 21 22 22 22 22 22 22 21 21 21 21 21 21 21 21 20 20 19 19 19 18
22 22 22 21 21 21 21 22 22 22 22 22 22 22 21 21 21 22 22 22 22 22 22 22 22 22 22 22 22 21 21 21 21 21 21 21 21 20 20 19 19 19
23 22 22 21 21 21 21 22 22 22 22 22 22 22 22 21 22 22 22 22 22 22 22 22 22 22 22 22 22 22 22 21 22 22 21 21 21 21 20 19 19 19
23 23 22 21 21 21 22 22 22 22 22 22 22 22 22 22 22 22 22 22 22 22 22 22 22 22 22 21 22 22 22 22 22 22 22 21 21 21 20 19 19 18
23 23 23 22 22 22 22 22 22 22 22 22 22 22 22 22 22 22 22 22 22 22 22 22 22 22 22 21 21 21 22 22 22 22 22 21 21 21 20 19 19 18
23 23 23 23 23 22 22 22 22 22 22 22 22 22 22 22 22 22 22 22 22 22 22 22 22 22 22 22 21 21 21 22 22 22 22 21 21 20 20 19 19 19
23 23 24 24 23 23 22 22 22 22 22 22 22 22 22 22 22 22 22 22 22 22 22 22 22 22 22 22 21 21 21 21 22 22 22 21 21 20 20 19 19 19
23 23 24 24 24 23 22 22 22 22 22 22 22 22 22 22 23 22 22 22 22 22 22 22 21 21 21 21 21 21 21 21 21 21 21 21 21 21 20 20 19 19
23 23 23 24 24 23 23 22 22 22 22 22 21 22 22 22 22 22 22 22 22 22 21 21 21 21 21 21 21 21 21 20 20 20 21 21 21 21 20 20 19 19
23 23 23 23 23 23 23 23 22 22 22 21 21 22 22 22 22 22 22 22 22 22 21 21 21 21 21 21 21 21 20 20 20 20 20 21 21 20 20 20 19 19
23 23 23 23 23 23 23 23 23 22 22 21 21 21 21 21 21 21 22 22 22 22 21 21 21 22 21 21 20 20 20 20 20 20 20 20 20 20 20 20 19 19
23 23 23 22 22 23 23 23 23 22 22 21 21 21 21 21 21 21 22 22 22 21 21 21 22 22 21 21 20 20 20 19 19 19 19 19 19 20 20 20 19 19
24 23 23 22 23 23 23 23 22 22 21 21 21 21 21 21 21 21 22 22 21 21 21 22 22 22 21 21 20 20 19 19 19 19 19 19 19 19 19 19 19 19
24 23 23 23 23 23 22 22 22 22 21 21 20 21 21 21 22 22 22 21 22 22 22 22 22 22 21 21 20 20 19 19 19 19 19 19 19 18 19 19 19 19
24 24 23 23 23 22 22 22 22 21 21 21 20 20 21 22 22 22 22 22 22 22 22 22 22 22 21 20 20 20 19 19 19 19 18 18 18 18 18 18 18 18
25 24 24 23 23 23 23 22 22 21 21 21 20 20 21 21 22 22 22 22 22 22 22 22 22 21 21 20 20 19 19 19 18 18 18 18 18 18 18 18 17 18
25 25 24 24 23 23 23 23 23 22 21 21 20 21 21 21 21 22 22 22 22 22 22 22 21 21 20 20 20 19 19 18 18 18 18 18 18 17 17 17 17 17
25 25 25 24 24 24 24 23 23 22 22 22 21 21 21 22 22 22 21 21 21 21 22 21 21 21 20 20 20 19 19 18 18 18 18 17 17 17 17 16 16 16
25 25 25 25 25 25 24 24 24 23 23 22 22 22 22 22 22 21 21 21 21 21 21 21 21 21 20 20 20 19 18 18 18 17 17 17 17 17 16 16 15 15
25 25 25 25 25 25 25 24 24 23 23 23 23 22 22 22 21 21 21 21 21 21 21 21 21 20 20 20 19 18 18 18 17 17 17 17 17 16 16 15 15 15

ECMWFNIL_850_temp_033.txt.gz
Temp
22 22 21 21 22 22 22 22 22 22 22 22 22 22 22 22 21 21 21 20 20 20 20 20 20 20 20 20 20 20 20 19 19 19 18 18 18 18 18 18 18 18
22 22 22 22 22 22 22 22 22 22 22 22 22 22 22 22 21 21 21 21 20 20 20 20 20 21 20 20 20 20 20 20 19 19 18 18 19 19 18 18 18 18
22 22 22 22 22 22 22 22 22 22 22 22 22 22 22 21 21 21 21 21 21 20 20 20 20 21 21 20 20 20 21 21 20 19 19 19 19 19 19 18 18 18
23 22 22 23 23 23 22 22 22 22 22 22 22 22 22 21 21 21 21 21 21 20 20 20 21 21 21 21 21 21 21 21 21 20 19 19 19 19 19 18 18 18
23 23 23 23 23 23 23 22 22 22 22 22 22 22 22 21 21 21 21 21 21 21 20 20 21 21 21 21 21 21 21 21 21 20 20 20 19 19 19 19 18 18
23 23 23 23 23 23 23 23 22 22 22 22 22 22 21 21 21 21 21 21 21 21 21 21 21 21 21 21 21 21 21 21 21 20 20 20 20 19 19 19 19 18
23 23 23 23 23 23 23 23 23 22 22 22 22 22 21 21 21 21 21 21 21 21 21 21 21 21 21 21 21 21 22 22 21 21 21 21 20 19 19 19 19 19
24 23 23 23 22 22 23 23 23 23 22 22 22 21 21 21 21 22 22 21 21 21 21 21 21 21 21 21 22 22 22 22 22 21 21 21 21 20 20 19 19 19
24 23 23 23 23 22 23 23 23 23 23 22 22 22 22 21 21 21 22 21 21 21 21 21 21 21 21 21 21 22 22 22 22 22 22 22 21 21 20 19 19 19
24 23 23 23 23 23 23 23 24 23 23 23 22 22 22 22 21 21 21 21 21 21 21 21 21 21 21 21 21 21 22 22 22 22 22 22 22 21 20 20 19 19
24 23 23 23 23 23 23 23 24 23 23 23 23 22 22 22 21 21 21 21 21 21 21 21 21 21 21 21 21 22 22 22 22 22 22 22 22 21 21 20 20 19
24 24 24 23 23 23 23 23 23 23 23 23 23 23 22 22 22 21 21 21 22 21 21 21 21 21 21 21 21 22 22 22 22 22 22 22 21 21 21 21 20 20
24 24 24 24 23 23 22 22 23 23 23 24 23 23 23 22 22 22 21 21 21 21 21 21 21 21 21 21 21 21 22 21 21 21 21 21 21 21 21 21 20 20
24 24 24 24 24 23 23 22 22 22 23 23 23 23 23 23 22 22 22 21 21 21 21 21 21 21 21 21 21 21 21 21 21 21 21 20 20 21 20 20 20 20
24 24 24 24 24 23 23 23 22 22 22 23 23 24 23 23 23 22 22 21 21 21 21 21 21 21 21 21 21 21 21 21 21 20 20 20 20 20 20 20 20 20
24 24 24 24 23 23 23 23 22 22 22 22 23 23 24 23 23 22 22 22 21 21 21 21 21 21 21 21 21 20 20 20 20 20 20 20 19 19 19 19 20 20
24 24 24 23 23 23 23 23 23 22 22 22 22 23 23 23 23 23 22 22 22 21 21 21 22 22 21 21 21 20 20 20 20 20 20 20 19 19 19 19 19 19
24 24 23 23 23 23 23 23 22 22 22 22 21 22 23 23 23 23 23 22 22 21 21 22 22 22 21 21 20 20 20 20 19 19 19 19 19 19 19 19 19 19
24 24 24 23 23 23 23 23 22 22 22 22 22 22 22 23 23 23 23 23 22 22 22 22 22 22 21 21 20 20 19 19 19 19 19 19 19 19 19 19 18 18
23 23 24 24 23 23 23 22 22 22 22 22 22 21 21 23 23 24 24 23 23 22 22 22 22 22 21 20 20 20 20 20 19 19 19 19 19 19 19 19 18 18
24 24 24 23 23 22 22 22 22 23 22 22 21 21 22 23 23 24 24 24 23 23 23 22 22 21 21 20 20 20 20 20 20 19 19 19 19 19 19 19 19 18
24 24 24 23 22 22 22 22 22 23 22 22 22 22 22 22 23 23 24 24 23 23 23 22 22 21 21 20 20 20 20 20 19 19 19 19 19 19 19 19 18 18
25 24 24 23 22 22 22 22 22 22 22 22 22 22 22 22 23 23 23 23 23 23 23 22 21 21 21 20 20 20 20 20 19 19 19 19 18 18 18 18 18 18
25 25 25 24 23 22 22 22 22 22 23 23 22 22 23 23 23 23 23 23 23 23 23 22 21 21 21 21 20 20 20 20 20 19 19 18 18 18 18 18 18 18
25 25 25 24 24 23 23 23 23 23 23 22 22 22 22 23 23 23 23 23 23 23 23 22 21 21 21 21 21 21 20 20 19 19 18 18 18 18 18 18 18 17
25 25 25 25 25 24 24 24 23 23 22 22 22 22 22 22 22 22 22 23 23 23 23 22 22 22 21 21 21 20 20 20 19 19 18 18 18 18 18 18 17 17